Time,TemperatureF,DewpointF,PressureIn,WindDirection,WindDirectionDegrees,WindSpeedMPH,WindSpeedGustMPH,Humidity,HourlyPrecipIn,Conditions,Clouds,dailyrainin,SoftwareType,DateUTC
2013-07-17 00:01:00,74.1,42.4,17.72,NE,39,0.0,0.0,32,0.00,,---,0.00,VWS V13.01,2013-07-17 04:01:00,
2013-07-17 00:06:00,74.1,42.4,17.72,NE,39,0.0,0.0,32,0.00,,---,0.00,VWS V13.01,2013-07-17 04:06:00,
2013-07-17 00:11:00,74.1,42.4,17.72,NE,39,0.0,0.0,32,0.00,,---,0.00,VWS V13.01,2013-07-17 04:11:00,
2013-07-17 00:16:00,74.1,42.4,17.72,NE,39,0.0,0.0,32,0.00,,---,0.00,VWS V13.01,2013-07-17 04:16:00,
2013-07-17 00:21:00,74.3,42.6,17.72,NE,39,0.0,0.0,32,0.00,,---,0.00,VWS V13.01,2013-07-17 04:21:00,
2013-07-17 00:26:00,74.5,41.9,17.72,NE,39,0.0,0.0,31,0.00,,---,0.00,VWS V13.01,2013-07-17 04:26:00,
2013-07-17 00:31:00,74.7,42.0,17.72,NE,39,0.0,0.0,31,0.00,,---,0.00,VWS V13.01,2013-07-17 04:31:00,
2013-07-17 00:36:00,74.7,42.0,17.72,NE,39,0.0,0.0,31,0.00,,---,0.00,VWS V13.01,2013-07-17 04:36:00,
2013-07-17 00:41:00,74.7,42.0,17.72,NE,39,0.0,0.0,31,0.00,,---,0.00,VWS V13.01,2013-07-17 04:41:00,
2013-07-17 00:46:00,74.8,42.2,17.72,NE,39,0.0,0.0,31,0.00,,---,0.00,VWS V13.01,2013-07-17 04:46:00,
2013-07-17 00:51:00,75.2,42.5,17.72,NE,39,0.0,0.0,31,0.00,,---,0.00,VWS V13.01,2013-07-17 04:51:00,
2013-07-17 00:55:00,75.4,41.8,17.72,NE,39,0.0,0.0,30,0.00,,---,0.00,VWS V13.01,2013-07-17 04:55:00,
2013-07-17 00:59:00,75.4,41.8,17.72,NE,39,0.0,0.0,30,0.00,,---,0.00,VWS V13.01,2013-07-17 04:59:00,
2013-07-17 01:04:00,75.4,41.8,17.72,NE,39,0.0,0.0,30,0.00,,---,0.00,VWS V13.01,2013-07-17 05:04:00,
2013-07-17 01:09:00,75.4,41.8,17.72,NE,39,0.0,0.0,30,0.00,,---,0.00,VWS V13.01,2013-07-17 05:09:00,
2013-07-17 01:14:00,75.4,41.8,17.72,NE,39,0.0,0.0,30,0.00,,---,0.00,VWS V13.01,2013-07-17 05:14:00,
2013-07-17 01:19:00,75.6,42.0,17.72,NE,39,0.0,0.0,30,0.00,,---,0.00,VWS V13.01,2013-07-17 05:19:00,
2013-07-17 01:24:00,75.7,42.1,17.72,NE,39,0.0,0.0,30,0.00,,---,0.00,VWS V13.01,2013-07-17 05:24:00,
2013-07-17 01:29:00,75.7,42.1,17.72,NE,39,0.0,0.0,30,0.00,,---,0.00,VWS V13.01,2013-07-17 05:29:00,
2013-07-17 01:34:00,75.7,42.1,17.72,NE,39,0.0,0.0,30,0.00,,---,0.00,VWS V13.01,2013-07-17 05:34:00,
2013-07-17 01:39:00,75.7,42.1,17.72,NE,39,0.0,0.0,30,0.00,,---,0.00,VWS V13.01,2013-07-17 05:39:00,
2013-07-17 01:44:00,75.9,42.3,17.72,NE,39,0.0,0.0,30,0.00,,---,0.00,VWS V13.01,2013-07-17 05:44:00,
2013-07-17 01:49:00,75.9,42.3,17.72,SW,220,0.0,0.0,30,0.00,,---,0.00,VWS V13.01,2013-07-17 05:49:00,
2013-07-17 01:54:00,76.1,42.5,17.72,WSW,256,0.0,0.0,30,0.00,,---,0.00,VWS V13.01,2013-07-17 05:54:00,
2013-07-17 01:59:00,76.3,43.5,17.72,NW,317,0.0,0.0,31,0.00,,---,0.00,VWS V13.01,2013-07-17 05:59:00,
2013-07-17 02:04:00,76.3,43.5,17.72,SSW,210,0.0,0.0,31,0.00,,---,0.00,VWS V13.01,2013-07-17 06:04:00,
2013-07-17 02:09:00,76.3,43.5,17.72,SSW,210,0.0,0.0,31,0.00,,---,0.00,VWS V13.01,2013-07-17 06:09:00,
2013-07-17 02:14:00,76.5,43.6,17.72,SSW,210,0.0,0.0,31,0.00,,---,0.00,VWS V13.01,2013-07-17 06:14:00,
2013-07-17 02:19:00,76.5,43.6,17.72,WSW,252,0.0,0.0,31,0.00,,---,0.00,VWS V13.01,2013-07-17 06:19:00,
2013-07-17 02:24:00,76.5,43.6,17.72,SSW,197,0.0,0.0,31,0.00,,---,0.00,VWS V13.01,2013-07-17 06:24:00,
2013-07-17 02:29:00,76.5,43.6,17.72,SSW,209,0.0,0.0,31,0.00,,---,0.00,VWS V13.01,2013-07-17 06:29:00,
2013-07-17 02:34:00,76.5,43.6,17.72,SW,227,0.0,0.0,31,0.00,,---,0.00,VWS V13.01,2013-07-17 06:34:00,
2013-07-17 02:39:00,76.5,43.6,17.72,WSW,237,0.0,0.0,31,0.00,,---,0.00,VWS V13.01,2013-07-17 06:39:00,
2013-07-17 02:44:00,76.5,43.6,17.72,SW,230,0.0,0.0,31,0.00,,---,0.00,VWS V13.01,2013-07-17 06:44:00,
2013-07-17 02:49:00,76.5,43.6,17.72,WSW,252,0.0,0.0,31,0.00,,---,0.00,VWS V13.01,2013-07-17 06:49:00,
2013-07-17 02:54:00,76.3,43.5,17.72,WSW,252,0.0,0.0,31,0.00,,---,0.00,VWS V13.01,2013-07-17 06:54:00,
2013-07-17 02:59:00,76.3,43.5,17.72,West,277,0.0,3.6,31,0.00,,---,0.00,VWS V13.01,2013-07-17 06:59:00,
2013-07-17 03:04:00,76.3,43.5,17.72,WSW,253,0.0,0.0,31,0.00,,---,0.00,VWS V13.01,2013-07-17 07:04:00,
2013-07-17 03:09:00,76.1,43.3,17.72,SSW,206,0.0,0.0,31,0.00,,---,0.00,VWS V13.01,2013-07-17 07:09:00,
2013-07-17 03:14:00,76.1,43.3,17.72,SSW,206,0.0,0.0,31,0.00,,---,0.00,VWS V13.01,2013-07-17 07:14:00,
2013-07-17 03:19:00,76.1,43.3,17.72,SW,225,0.0,0.0,31,0.00,,---,0.00,VWS V13.01,2013-07-17 07:19:00,
2013-07-17 03:24:00,76.1,43.3,17.72,West,270,0.0,0.0,31,0.00,,---,0.00,VWS V13.01,2013-07-17 07:24:00,
2013-07-17 03:29:00,76.1,43.3,17.72,SW,236,0.0,0.0,31,0.00,,---,0.00,VWS V13.01,2013-07-17 07:29:00,
2013-07-17 03:34:00,76.1,43.3,17.72,West,260,0.0,0.0,31,0.00,,---,0.00,VWS V13.01,2013-07-17 07:34:00,
2013-07-17 03:39:00,76.1,44.1,17.72,WNW,289,0.0,0.0,32,0.00,,---,0.00,VWS V13.01,2013-07-17 07:39:00,
2013-07-17 03:44:00,76.1,44.1,17.72,WNW,289,0.0,0.0,32,0.00,,---,0.00,VWS V13.01,2013-07-17 07:44:00,
2013-07-17 03:49:00,76.1,44.1,17.72,WNW,285,0.0,0.0,32,0.00,,---,0.00,VWS V13.01,2013-07-17 07:49:00,
2013-07-17 03:54:00,76.1,44.1,17.72,West,268,0.0,0.0,32,0.00,,---,0.00,VWS V13.01,2013-07-17 07:54:00,
2013-07-17 03:59:00,76.1,44.1,17.72,South,190,0.0,0.0,32,0.00,,---,0.00,VWS V13.01,2013-07-17 07:59:00,
2013-07-17 04:04:00,76.1,44.1,17.72,SW,224,0.0,0.0,32,0.00,,---,0.00,VWS V13.01,2013-07-17 08:04:00,
2013-07-17 04:09:00,75.9,44.0,17.72,SW,224,0.0,0.0,32,0.00,,---,0.00,VWS V13.01,2013-07-17 08:09:00,
2013-07-17 04:14:00,75.9,44.0,17.72,SW,233,0.0,0.0,32,0.00,,---,0.00,VWS V13.01,2013-07-17 08:14:00,
2013-07-17 04:19:00,75.9,44.0,17.72,SW,219,0.0,0.0,32,0.00,,---,0.00,VWS V13.01,2013-07-17 08:19:00,
2013-07-17 04:24:00,75.9,44.0,17.72,North,2,0.0,2.7,32,0.00,,---,0.00,VWS V13.01,2013-07-17 08:24:00,
2013-07-17 04:29:00,75.9,44.0,17.72,North,2,0.0,0.0,32,0.00,,---,0.00,VWS V13.01,2013-07-17 08:29:00,
2013-07-17 04:34:00,75.9,44.0,17.72,WNW,287,0.0,0.0,32,0.00,,---,0.00,VWS V13.01,2013-07-17 08:34:00,
2013-07-17 04:39:00,75.9,44.0,17.72,West,277,0.0,0.0,32,0.00,,---,0.00,VWS V13.01,2013-07-17 08:39:00,
2013-07-17 04:44:00,75.9,44.0,17.72,WNW,286,0.0,0.0,32,0.00,,---,0.00,VWS V13.01,2013-07-17 08:44:00,
2013-07-17 04:49:00,75.9,44.0,17.72,WNW,286,0.0,0.0,32,0.00,,---,0.00,VWS V13.01,2013-07-17 08:49:00,
2013-07-17 04:54:00,75.7,43.8,17.72,WNW,286,0.0,0.0,32,0.00,,---,0.00,VWS V13.01,2013-07-17 08:54:00,
2013-07-17 04:59:00,75.7,43.8,17.72,WNW,287,0.0,0.0,32,0.00,,---,0.00,VWS V13.01,2013-07-17 08:59:00,
2013-07-17 05:04:00,75.7,43.8,17.72,NW,305,0.0,0.0,32,0.00,,---,0.00,VWS V13.01,2013-07-17 09:04:00,
2013-07-17 05:09:00,75.7,43.8,17.72,WNW,299,0.0,0.0,32,0.00,,---,0.00,VWS V13.01,2013-07-17 09:09:00,
2013-07-17 05:14:00,75.7,43.8,17.72,WNW,299,0.0,0.0,32,0.00,,---,0.00,VWS V13.01,2013-07-17 09:14:00,
2013-07-17 05:19:00,75.7,43.8,17.72,WNW,299,0.0,0.0,32,0.00,,---,0.00,VWS V13.01,2013-07-17 09:19:00,
2013-07-17 05:24:00,75.6,43.7,17.72,WNW,299,0.0,0.0,32,0.00,,---,0.00,VWS V13.01,2013-07-17 09:24:00,
2013-07-17 05:29:00,75.6,43.7,17.72,WNW,299,0.0,0.0,32,0.00,,---,0.00,VWS V13.01,2013-07-17 09:29:00,
2013-07-17 05:34:00,75.6,44.5,17.72,WNW,299,0.0,0.0,33,0.00,,---,0.00,VWS V13.01,2013-07-17 09:34:00,
2013-07-17 05:39:00,75.6,43.7,17.72,WNW,286,0.0,0.0,32,0.00,,---,0.00,VWS V13.01,2013-07-17 09:39:00,
2013-07-17 05:44:00,75.6,43.7,17.72,WNW,286,0.0,0.0,32,0.00,,---,0.00,VWS V13.01,2013-07-17 09:44:00,
2013-07-17 05:49:00,75.6,43.7,17.72,WNW,286,0.0,0.0,32,0.00,,---,0.00,VWS V13.01,2013-07-17 09:49:00,
2013-07-17 05:54:00,75.6,43.7,17.72,WNW,286,0.0,0.0,32,0.00,,---,0.00,VWS V13.01,2013-07-17 09:54:00,
2013-07-17 05:59:00,75.6,43.7,17.72,WNW,286,0.0,0.0,32,0.00,,---,0.00,VWS V13.01,2013-07-17 09:59:00,
2013-07-17 06:04:00,75.4,43.5,17.72,WNW,286,0.0,0.0,32,0.00,,---,0.00,VWS V13.01,2013-07-17 10:04:00,
2013-07-17 06:09:00,75.6,43.7,17.72,WNW,286,0.0,0.0,32,0.00,,---,0.00,VWS V13.01,2013-07-17 10:09:00,
2013-07-17 06:14:00,75.4,43.5,17.72,WNW,286,0.0,0.0,32,0.00,,---,0.00,VWS V13.01,2013-07-17 10:14:00,
2013-07-17 06:19:00,75.4,43.5,17.72,West,276,0.0,0.0,32,0.00,,---,0.00,VWS V13.01,2013-07-17 10:19:00,
2013-07-17 06:24:00,75.4,43.5,17.72,West,276,0.0,0.0,32,0.00,,---,0.00,VWS V13.01,2013-07-17 10:24:00,
2013-07-17 06:29:00,75.6,43.7,17.72,West,276,0.0,0.0,32,0.00,,---,0.00,VWS V13.01,2013-07-17 10:29:00,
2013-07-17 06:34:00,75.6,43.7,17.72,West,276,0.0,0.0,32,0.00,,---,0.00,VWS V13.01,2013-07-17 10:34:00,
2013-07-17 06:39:00,75.6,44.5,17.72,West,277,0.0,0.0,33,0.00,,---,0.00,VWS V13.01,2013-07-17 10:39:00,
2013-07-17 06:44:00,75.6,44.5,17.72,West,277,0.0,0.0,33,0.00,,---,0.00,VWS V13.01,2013-07-17 10:44:00,
2013-07-17 06:49:00,75.6,44.5,17.72,West,277,0.0,0.0,33,0.00,,---,0.00,VWS V13.01,2013-07-17 10:49:00,
2013-07-17 06:54:00,75.7,44.6,17.72,West,277,0.0,0.0,33,0.00,,---,0.00,VWS V13.01,2013-07-17 10:54:00,
2013-07-17 06:59:00,75.9,44.8,17.72,West,277,0.0,0.0,33,0.00,,---,0.00,VWS V13.01,2013-07-17 10:59:00,
2013-07-17 07:04:00,76.3,45.1,17.72,West,277,0.0,0.0,33,0.00,,---,0.00,VWS V13.01,2013-07-17 11:04:00,
2013-07-17 07:09:00,76.5,45.2,17.72,West,277,0.0,0.0,33,0.00,,---,0.00,VWS V13.01,2013-07-17 11:09:00,
2013-07-17 07:14:00,76.6,45.4,17.72,West,271,0.0,0.0,33,0.00,,---,0.00,VWS V13.01,2013-07-17 11:14:00,
2013-07-17 07:19:00,76.8,45.6,17.72,WSW,246,0.0,0.0,33,0.00,,---,0.00,VWS V13.01,2013-07-17 11:19:00,
2013-07-17 07:24:00,77.0,45.7,17.72,West,281,0.0,0.0,33,0.00,,---,0.00,VWS V13.01,2013-07-17 11:24:00,
2013-07-17 07:29:00,77.4,46.0,17.72,West,281,0.0,0.0,33,0.00,,---,0.00,VWS V13.01,2013-07-17 11:29:00,
2013-07-17 07:34:00,77.5,46.2,17.72,West,280,0.0,0.0,33,0.00,,---,0.00,VWS V13.01,2013-07-17 11:34:00,
2013-07-17 07:39:00,77.5,46.2,17.72,WNW,285,2.2,4.0,33,0.00,,---,0.00,VWS V13.01,2013-07-17 11:39:00,
2013-07-17 07:44:00,77.7,46.3,17.72,West,269,0.0,0.0,33,0.00,,---,0.00,VWS V13.01,2013-07-17 11:44:00,
2013-07-17 07:49:00,77.7,46.3,17.72,SW,231,0.0,0.0,33,0.00,,---,0.00,VWS V13.01,2013-07-17 11:49:00,
2013-07-17 07:54:00,77.7,46.3,17.72,WNW,293,0.0,0.0,33,0.00,,---,0.00,VWS V13.01,2013-07-17 11:54:00,
2013-07-17 07:59:00,77.9,46.5,17.72,NE,41,0.0,0.0,33,0.00,,---,0.00,VWS V13.01,2013-07-17 11:59:00,
2013-07-17 08:04:00,78.1,46.7,17.72,WNW,283,0.0,0.0,33,0.00,,---,0.00,VWS V13.01,2013-07-17 12:04:00,
2013-07-17 08:09:00,78.3,46.8,17.72,West,262,0.0,0.0,33,0.00,,---,0.00,VWS V13.01,2013-07-17 12:09:00,
2013-07-17 08:14:00,78.6,47.1,17.72,West,259,0.0,0.0,33,0.00,,---,0.00,VWS V13.01,2013-07-17 12:14:00,
2013-07-17 08:19:00,78.8,47.3,17.72,SW,225,0.0,0.0,33,0.00,,---,0.00,VWS V13.01,2013-07-17 12:19:00,
2013-07-17 08:24:00,79.0,47.5,17.72,West,279,0.0,0.0,33,0.00,,---,0.00,VWS V13.01,2013-07-17 12:24:00,
2013-07-17 08:29:00,79.2,47.6,17.72,WSW,244,0.0,0.0,33,0.00,,---,0.00,VWS V13.01,2013-07-17 12:29:00,
2013-07-17 08:34:00,79.3,47.8,17.72,WNW,303,0.0,0.0,33,0.00,,---,0.00,VWS V13.01,2013-07-17 12:34:00,
2013-07-17 08:39:00,79.5,47.1,17.72,WNW,283,0.0,2.7,32,0.00,,---,0.00,VWS V13.01,2013-07-17 12:39:00,
2013-07-17 08:44:00,79.7,47.3,17.72,West,281,0.0,2.2,32,0.00,,---,0.00,VWS V13.01,2013-07-17 12:44:00,
2013-07-17 08:49:00,80.1,47.6,17.72,West,274,0.0,0.0,32,0.00,,---,0.00,VWS V13.01,2013-07-17 12:49:00,
2013-07-17 08:54:00,80.2,47.7,17.72,West,274,0.0,0.0,32,0.00,,---,0.00,VWS V13.01,2013-07-17 12:54:00,
2013-07-17 08:59:00,80.4,47.9,17.72,WSW,249,0.0,2.7,32,0.00,,---,0.00,VWS V13.01,2013-07-17 12:59:00,
2013-07-17 09:04:00,80.6,47.2,17.72,SSW,205,0.0,0.0,31,0.00,,---,0.00,VWS V13.01,2013-07-17 13:04:00,
2013-07-17 09:09:00,80.8,47.4,17.72,SW,231,0.0,0.0,31,0.00,,---,0.00,VWS V13.01,2013-07-17 13:09:00,
2013-07-17 09:14:00,81.0,47.5,17.72,SW,232,0.0,0.0,31,0.00,,---,0.00,VWS V13.01,2013-07-17 13:14:00,
2013-07-17 09:19:00,81.0,47.5,17.72,NW,306,0.0,4.0,31,0.00,,---,0.00,VWS V13.01,2013-07-17 13:19:00,
2013-07-17 09:24:00,81.1,47.7,17.72,WSW,257,0.0,2.7,31,0.00,,---,0.00,VWS V13.01,2013-07-17 13:24:00,
2013-07-17 09:29:00,81.3,47.8,17.72,WSW,257,0.0,0.0,31,0.00,,---,0.00,VWS V13.01,2013-07-17 13:29:00,
2013-07-17 09:34:00,81.5,48.0,17.72,WSW,257,0.0,0.0,31,0.00,,---,0.00,VWS V13.01,2013-07-17 13:34:00,
2013-07-17 09:39:00,81.9,48.3,17.72,WSW,257,0.0,0.0,31,0.00,,---,0.00,VWS V13.01,2013-07-17 13:39:00,
2013-07-17 09:44:00,82.2,48.6,17.72,WSW,239,0.0,4.0,31,0.00,,---,0.00,VWS V13.01,2013-07-17 13:44:00,
2013-07-17 09:49:00,82.4,47.9,17.72,WNW,293,0.0,2.2,30,0.00,,---,0.00,VWS V13.01,2013-07-17 13:49:00,
2013-07-17 09:54:00,82.8,48.2,17.72,SW,235,0.0,2.2,30,0.00,,---,0.00,VWS V13.01,2013-07-17 13:54:00,
2013-07-17 09:59:00,83.1,48.5,17.72,WSW,238,0.0,0.0,30,0.00,,---,0.00,VWS V13.01,2013-07-17 13:59:00,
2013-07-17 10:04:00,83.5,48.8,17.72,NNW,333,0.0,2.2,30,0.00,,---,0.00,VWS V13.01,2013-07-17 14:04:00,
2013-07-17 10:08:00,83.7,49.0,17.72,West,262,0.0,0.0,30,0.00,,---,0.00,VWS V13.01,2013-07-17 14:08:00,
2013-07-17 10:13:00,84.0,48.4,17.72,SW,234,4.0,4.0,29,0.00,,---,0.00,VWS V13.01,2013-07-17 14:13:00,
2013-07-17 10:19:00,84.2,48.5,17.72,West,274,4.5,4.5,29,0.00,,---,0.00,VWS V13.01,2013-07-17 14:19:00,
2013-07-17 10:24:00,84.4,46.8,17.72,North,357,0.0,0.0,27,0.00,,---,0.00,VWS V13.01,2013-07-17 14:24:00,
2013-07-17 10:29:00,84.7,47.1,17.72,WSW,248,0.0,0.0,27,0.00,,---,0.00,VWS V13.01,2013-07-17 14:29:00,
2013-07-17 10:34:00,85.1,47.4,17.72,NNW,337,0.0,2.7,27,0.00,,---,0.00,VWS V13.01,2013-07-17 14:34:00,
2013-07-17 10:39:00,85.5,45.7,17.72,SW,234,0.0,0.0,25,0.00,,---,0.00,VWS V13.01,2013-07-17 14:39:00,
2013-07-17 10:44:00,85.8,46.0,17.72,West,260,0.0,0.0,25,0.00,,---,0.00,VWS V13.01,2013-07-17 14:44:00,
2013-07-17 10:48:00,86.2,45.2,17.72,SW,234,0.0,0.0,24,0.00,,---,0.00,VWS V13.01,2013-07-17 14:48:00,
2013-07-17 10:54:00,86.4,44.2,17.72,West,262,0.0,0.0,23,0.00,,---,0.00,VWS V13.01,2013-07-17 14:54:00,
2013-07-17 10:58:00,86.5,43.2,17.72,WSW,248,0.0,0.0,22,0.00,,---,0.00,VWS V13.01,2013-07-17 14:58:00,
2013-07-17 11:03:00,86.7,42.2,17.72,NE,51,0.0,0.0,21,0.00,,---,0.00,VWS V13.01,2013-07-17 15:03:00,
2013-07-17 11:08:00,86.9,43.5,17.72,WSW,239,0.0,2.7,22,0.00,,---,0.00,VWS V13.01,2013-07-17 15:08:00,
2013-07-17 11:13:00,87.1,41.2,17.72,North,357,0.0,0.0,20,0.00,,---,0.00,VWS V13.01,2013-07-17 15:13:00,
2013-07-17 11:18:00,87.3,41.3,17.72,West,266,0.0,3.6,20,0.00,,---,0.00,VWS V13.01,2013-07-17 15:18:00,
2013-07-17 11:23:00,87.4,40.2,17.72,SW,231,0.0,0.0,19,0.00,,---,0.00,VWS V13.01,2013-07-17 15:23:00,
2013-07-17 11:28:00,87.6,40.3,17.72,WSW,255,0.0,2.7,19,0.00,,---,0.00,VWS V13.01,2013-07-17 15:28:00,
2013-07-17 11:33:00,87.6,40.3,17.72,West,259,0.0,0.0,19,0.00,,---,0.00,VWS V13.01,2013-07-17 15:33:00,
2013-07-17 11:38:00,87.8,39.1,17.72,West,269,0.0,0.0,18,0.00,,---,0.00,VWS V13.01,2013-07-17 15:38:00,
2013-07-17 11:43:00,88.0,39.2,17.72,ENE,77,0.0,0.0,18,0.00,,---,0.00,VWS V13.01,2013-07-17 15:43:00,
2013-07-17 11:48:00,88.2,39.4,17.72,West,273,0.0,0.0,18,0.00,,---,0.00,VWS V13.01,2013-07-17 15:48:00,
2013-07-17 11:53:00,88.3,39.5,17.72,West,273,0.0,0.0,18,0.00,,---,0.00,VWS V13.01,2013-07-17 15:53:00,
2013-07-17 11:58:00,88.5,39.7,17.72,NNE,16,0.0,0.0,18,0.00,,---,0.00,VWS V13.01,2013-07-17 15:58:00,
2013-07-17 12:03:00,88.5,39.7,17.72,WNW,290,0.0,0.0,18,0.00,,---,0.00,VWS V13.01,2013-07-17 16:03:00,
2013-07-17 12:08:00,88.7,39.8,17.72,SW,236,0.0,2.7,18,0.00,,---,0.00,VWS V13.01,2013-07-17 16:08:00,
2013-07-17 12:13:00,88.9,39.9,17.72,SW,236,0.0,0.0,18,0.00,,---,0.00,VWS V13.01,2013-07-17 16:13:00,
2013-07-17 12:18:00,89.1,40.1,17.72,ENE,70,0.0,2.2,18,0.00,,---,0.00,VWS V13.01,2013-07-17 16:18:00,
2013-07-17 12:23:00,88.9,39.9,17.72,NNE,30,0.0,0.0,18,0.00,,---,0.00,VWS V13.01,2013-07-17 16:23:00,
2013-07-17 12:28:00,88.7,39.8,17.72,NNE,30,0.0,0.0,18,0.00,,---,0.00,VWS V13.01,2013-07-17 16:28:00,
2013-07-17 12:33:00,88.9,39.9,17.72,NNE,30,0.0,0.0,18,0.00,,---,0.00,VWS V13.01,2013-07-17 16:33:00,
2013-07-17 12:38:00,88.9,39.9,17.72,NNE,30,0.0,0.0,18,0.00,,---,0.00,VWS V13.01,2013-07-17 16:38:00,
2013-07-17 12:43:00,88.9,39.9,17.72,NE,34,0.0,2.2,18,0.00,,---,0.00,VWS V13.01,2013-07-17 16:43:00,
2013-07-17 12:48:00,88.9,39.9,17.72,NE,37,0.0,0.0,18,0.00,,---,0.00,VWS V13.01,2013-07-17 16:48:00,
2013-07-17 12:53:00,89.1,40.1,17.72,North,9,0.0,0.0,18,0.00,,---,0.00,VWS V13.01,2013-07-17 16:53:00,
2013-07-17 12:58:00,89.2,40.2,17.72,North,9,0.0,0.0,18,0.00,,---,0.00,VWS V13.01,2013-07-17 16:58:00,
2013-07-17 13:03:00,89.6,40.5,17.72,West,275,2.7,3.6,18,0.00,,---,0.00,VWS V13.01,2013-07-17 17:03:00,
2013-07-17 13:08:00,90.3,41.1,17.72,WSW,243,2.2,5.4,18,0.00,,---,0.00,VWS V13.01,2013-07-17 17:08:00,
2013-07-17 13:13:00,90.9,36.9,17.72,WSW,251,2.2,2.7,15,0.00,,---,0.00,VWS V13.01,2013-07-17 17:13:00,
2013-07-17 13:18:00,91.2,40.4,17.72,WSW,252,0.0,0.0,17,0.00,,---,0.00,VWS V13.01,2013-07-17 17:18:00,
2013-07-17 13:23:00,91.2,37.2,17.72,WSW,256,4.0,4.0,15,0.00,,---,0.00,VWS V13.01,2013-07-17 17:23:00,
2013-07-17 13:28:00,91.6,35.7,17.72,West,281,0.0,0.0,14,0.00,,---,0.00,VWS V13.01,2013-07-17 17:28:00,
2013-07-17 13:33:00,92.1,36.1,17.72,WSW,255,0.0,4.5,14,0.00,,---,0.00,VWS V13.01,2013-07-17 17:33:00,
2013-07-17 13:38:00,93.0,36.8,17.72,West,271,0.0,3.1,14,0.00,,---,0.00,VWS V13.01,2013-07-17 17:38:00,
2013-07-17 13:43:00,93.0,36.8,17.72,West,265,2.2,2.2,14,0.00,,---,0.00,VWS V13.01,2013-07-17 17:43:00,
2013-07-17 13:48:00,92.3,32.4,17.72,NNE,19,0.0,2.7,12,0.00,,---,0.00,VWS V13.01,2013-07-17 17:48:00,
2013-07-17 13:53:00,91.6,31.9,17.72,NE,36,0.0,0.0,12,0.00,,---,0.00,VWS V13.01,2013-07-17 17:53:00,
2013-07-17 13:58:00,91.0,31.4,17.72,WNW,301,0.0,0.0,12,0.00,,---,0.00,VWS V13.01,2013-07-17 17:58:00,
2013-07-17 14:03:00,91.0,31.4,17.72,WNW,301,0.0,0.0,12,0.00,,---,0.00,VWS V13.01,2013-07-17 18:03:00,
2013-07-17 14:08:00,91.9,32.1,17.72,NW,310,0.0,0.0,12,0.00,,---,0.00,VWS V13.01,2013-07-17 18:08:00,
2013-07-17 14:13:00,93.0,33.0,17.72,West,273,0.0,0.0,12,0.00,,---,0.00,VWS V13.01,2013-07-17 18:13:00,
2013-07-17 14:18:00,93.9,37.5,17.72,West,278,0.0,0.0,14,0.00,,---,0.00,VWS V13.01,2013-07-17 18:18:00,
2013-07-17 14:23:00,94.5,31.9,17.72,NNW,335,3.1,3.1,11,0.00,,---,0.00,VWS V13.01,2013-07-17 18:23:00,
2013-07-17 14:28:00,94.6,32.0,17.72,West,269,2.2,4.0,11,0.00,,---,0.00,VWS V13.01,2013-07-17 18:28:00,
2013-07-17 14:33:00,94.8,32.2,17.72,North,357,2.2,2.7,11,0.00,,---,0.00,VWS V13.01,2013-07-17 18:33:00,
2013-07-17 14:38:00,94.8,27.3,17.72,NE,54,0.0,0.0,9,0.00,,---,0.00,VWS V13.01,2013-07-17 18:38:00,
2013-07-17 14:43:00,94.8,27.3,17.72,North,5,0.0,0.0,9,0.00,,---,0.00,VWS V13.01,2013-07-17 18:43:00,
2013-07-17 14:48:00,94.5,27.0,17.72,West,262,0.0,0.0,9,0.00,,---,0.00,VWS V13.01,2013-07-17 18:48:00,
2013-07-17 14:53:00,94.3,26.9,17.72,NNE,32,0.0,0.0,9,0.00,,---,0.00,VWS V13.01,2013-07-17 18:53:00,
2013-07-17 14:58:00,93.9,26.6,17.72,NNW,336,0.0,4.0,9,0.00,,---,0.00,VWS V13.01,2013-07-17 18:58:00,
2013-07-17 15:03:00,93.2,26.0,17.72,West,265,0.0,0.0,9,0.00,,---,0.00,VWS V13.01,2013-07-17 19:03:00,
2013-07-17 15:08:00,92.5,25.5,17.72,NNE,22,0.0,0.0,9,0.00,,---,0.00,VWS V13.01,2013-07-17 19:08:00,
2013-07-17 15:13:00,91.6,24.8,17.72,NNW,337,0.0,0.0,9,0.00,,---,0.00,VWS V13.01,2013-07-17 19:13:00,
2013-07-17 15:18:00,90.9,26.8,17.72,NNE,12,0.0,2.2,10,0.00,,---,0.00,VWS V13.01,2013-07-17 19:18:00,
2013-07-17 15:23:00,90.1,26.3,17.72,NNE,20,0.0,0.0,10,0.00,,---,0.00,VWS V13.01,2013-07-17 19:23:00,
2013-07-17 15:28:00,89.2,32.0,17.72,NNE,24,0.0,0.0,13,0.00,,---,0.00,VWS V13.01,2013-07-17 19:28:00,
2013-07-17 15:33:00,88.5,31.5,17.72,West,276,0.0,0.0,13,0.00,,---,0.00,VWS V13.01,2013-07-17 19:33:00,
2013-07-17 15:38:00,88.0,39.2,17.72,West,277,0.0,0.0,18,0.00,,---,0.00,VWS V13.01,2013-07-17 19:38:00,
2013-07-17 15:43:00,88.2,39.4,17.72,WSW,240,0.0,0.0,18,0.00,,---,0.00,VWS V13.01,2013-07-17 19:43:00,
2013-07-17 15:48:00,89.6,39.1,17.72,WNW,283,0.0,3.1,17,0.00,,---,0.00,VWS V13.01,2013-07-17 19:48:00,
2013-07-17 15:53:00,91.8,40.8,17.72,NNW,328,0.0,0.0,17,0.00,,---,0.00,VWS V13.01,2013-07-17 19:53:00,
2013-07-17 15:58:00,93.0,36.8,17.72,West,265,4.0,4.0,14,0.00,,---,0.00,VWS V13.01,2013-07-17 19:58:00,
2013-07-17 16:03:00,94.3,31.8,17.72,West,276,0.0,0.0,11,0.00,,---,0.00,VWS V13.01,2013-07-17 20:03:00,
2013-07-17 16:08:00,95.4,32.6,17.72,North,11,0.0,0.0,11,0.00,,---,0.00,VWS V13.01,2013-07-17 20:08:00,
2013-07-17 16:13:00,95.7,32.9,17.72,North,9,0.0,0.0,11,0.00,,---,0.00,VWS V13.01,2013-07-17 20:13:00,
2013-07-17 16:18:00,95.9,33.0,17.72,West,274,3.6,3.6,11,0.00,,---,0.00,VWS V13.01,2013-07-17 20:18:00,
2013-07-17 16:23:00,95.5,27.8,17.72,WSW,246,0.0,0.0,9,0.00,,---,0.00,VWS V13.01,2013-07-17 20:23:00,
2013-07-17 16:28:00,95.5,27.8,17.72,West,266,0.0,0.0,9,0.00,,---,0.00,VWS V13.01,2013-07-17 20:28:00,
2013-07-17 16:33:00,95.7,27.9,17.72,West,262,2.2,4.0,9,0.00,,---,0.00,VWS V13.01,2013-07-17 20:33:00,
2013-07-17 16:38:00,95.4,27.7,17.72,NNE,18,3.1,3.1,9,0.00,,---,0.00,VWS V13.01,2013-07-17 20:38:00,
2013-07-17 16:43:00,95.0,27.4,17.72,WSW,251,0.0,0.0,9,0.00,,---,0.00,VWS V13.01,2013-07-17 20:43:00,
2013-07-17 16:48:00,94.6,27.1,17.72,West,274,0.0,2.2,9,0.00,,---,0.00,VWS V13.01,2013-07-17 20:48:00,
2013-07-17 16:53:00,94.1,26.7,17.72,WNW,299,0.0,0.0,9,0.00,,---,0.00,VWS V13.01,2013-07-17 20:53:00,
2013-07-17 16:58:00,93.9,26.6,17.72,NNW,336,2.7,2.7,9,0.00,,---,0.00,VWS V13.01,2013-07-17 20:58:00,
2013-07-17 17:03:00,93.7,26.5,17.72,NNW,341,0.0,0.0,9,0.00,,---,0.00,VWS V13.01,2013-07-17 21:03:00,
2013-07-17 17:08:00,93.7,26.5,17.72,West,259,0.0,2.7,9,0.00,,---,0.00,VWS V13.01,2013-07-17 21:08:00,
2013-07-17 17:13:00,93.6,26.3,17.72,NNW,341,2.7,2.7,9,0.00,,---,0.00,VWS V13.01,2013-07-17 21:13:00,
2013-07-17 17:18:00,93.9,26.6,17.72,West,276,0.0,0.0,9,0.00,,---,0.00,VWS V13.01,2013-07-17 21:18:00,
2013-07-17 17:23:00,94.5,27.0,17.72,North,357,3.6,3.6,9,0.00,,---,0.00,VWS V13.01,2013-07-17 21:23:00,
2013-07-17 17:28:00,94.5,17.4,17.72,West,261,2.2,4.5,6,0.00,,---,0.00,VWS V13.01,2013-07-17 21:28:00,
2013-07-17 17:33:00,94.3,17.3,17.72,West,265,5.8,5.8,6,0.00,,---,0.00,VWS V13.01,2013-07-17 21:33:00,
2013-07-17 17:38:00,93.9,17.0,17.72,North,11,2.2,2.2,6,0.00,,---,0.00,VWS V13.01,2013-07-17 21:38:00,
2013-07-17 17:43:00,94.1,17.1,17.72,WSW,252,0.0,0.0,6,0.00,,---,0.00,VWS V13.01,2013-07-17 21:43:00,
2013-07-17 17:48:00,94.5,17.4,17.72,NNW,330,0.0,0.0,6,0.00,,---,0.00,VWS V13.01,2013-07-17 21:48:00,
2013-07-17 17:53:00,94.5,17.4,17.72,SSE,164,0.0,0.0,6,0.00,,---,0.00,VWS V13.01,2013-07-17 21:53:00,
2013-07-17 17:58:00,94.1,17.1,17.72,NNW,335,0.0,2.2,6,0.00,,---,0.00,VWS V13.01,2013-07-17 21:58:00,
2013-07-17 18:03:00,93.6,16.8,17.72,WSW,256,3.6,4.5,6,0.00,,---,0.00,VWS V13.01,2013-07-17 22:03:00,
2013-07-17 18:08:00,93.4,16.6,17.72,NNW,335,4.5,4.5,6,0.00,,---,0.00,VWS V13.01,2013-07-17 22:08:00,
2013-07-17 18:13:00,93.2,16.5,17.72,North,5,0.0,0.0,6,0.00,,---,0.00,VWS V13.01,2013-07-17 22:13:00,
2013-07-17 18:18:00,92.8,19.8,17.72,WSW,252,0.0,0.0,7,0.00,,---,0.00,VWS V13.01,2013-07-17 22:18:00,
2013-07-17 18:23:00,92.8,19.8,17.72,SW,231,0.0,0.0,7,0.00,,---,0.00,VWS V13.01,2013-07-17 22:23:00,
2013-07-17 18:28:00,92.8,19.8,17.72,WSW,257,0.0,0.0,7,0.00,,---,0.00,VWS V13.01,2013-07-17 22:28:00,
2013-07-17 18:33:00,92.8,19.8,17.72,West,279,0.0,0.0,7,0.00,,---,0.00,VWS V13.01,2013-07-17 22:33:00,
2013-07-17 18:38:00,92.8,19.8,17.72,North,0,0.0,3.1,7,0.00,,---,0.00,VWS V13.01,2013-07-17 22:38:00,
2013-07-17 18:43:00,92.7,19.7,17.72,NNW,338,0.0,0.0,7,0.00,,---,0.00,VWS V13.01,2013-07-17 22:43:00,
2013-07-17 18:48:00,92.3,19.4,17.72,NNE,14,0.0,0.0,7,0.00,,---,0.00,VWS V13.01,2013-07-17 22:48:00,
2013-07-17 18:53:00,92.3,19.4,17.72,North,9,0.0,0.0,7,0.00,,---,0.00,VWS V13.01,2013-07-17 22:53:00,
2013-07-17 18:58:00,91.9,19.2,17.72,WNW,294,0.0,0.0,7,0.00,,---,0.00,VWS V13.01,2013-07-17 22:58:00,
2013-07-17 19:03:00,91.6,18.9,17.72,SSW,208,0.0,0.0,7,0.00,,---,0.00,VWS V13.01,2013-07-17 23:03:00,
2013-07-17 19:08:00,91.0,18.5,17.72,West,265,0.0,0.0,7,0.00,,---,0.00,VWS V13.01,2013-07-17 23:08:00,
2013-07-17 19:13:00,90.3,18.0,17.72,North,357,0.0,0.0,7,0.00,,---,0.00,VWS V13.01,2013-07-17 23:13:00,
2013-07-17 19:18:00,89.6,17.5,17.72,North,357,0.0,0.0,7,0.00,,---,0.00,VWS V13.01,2013-07-17 23:18:00,
2013-07-17 19:23:00,89.1,20.2,17.72,NNW,346,0.0,0.0,8,0.00,,---,0.00,VWS V13.01,2013-07-17 23:23:00,
2013-07-17 19:28:00,88.5,19.8,17.72,WSW,238,0.0,0.0,8,0.00,,---,0.00,VWS V13.01,2013-07-17 23:28:00,
2013-07-17 19:33:00,88.3,19.6,17.72,WSW,238,0.0,0.0,8,0.00,,---,0.00,VWS V13.01,2013-07-17 23:33:00,
2013-07-17 19:38:00,88.2,19.5,17.72,WSW,238,0.0,0.0,8,0.00,,---,0.00,VWS V13.01,2013-07-17 23:38:00,
2013-07-17 19:43:00,87.8,19.2,17.72,West,279,0.0,0.0,8,0.00,,---,0.00,VWS V13.01,2013-07-17 23:43:00,
2013-07-17 19:48:00,87.6,26.7,17.72,NW,325,0.0,0.0,11,0.00,,---,0.00,VWS V13.01,2013-07-17 23:48:00,
2013-07-17 19:53:00,87.4,26.5,17.72,North,1,0.0,0.0,11,0.00,,---,0.00,VWS V13.01,2013-07-17 23:53:00,
2013-07-17 19:58:00,87.3,26.4,17.72,NNE,33,0.0,0.0,11,0.00,,---,0.00,VWS V13.01,2013-07-17 23:58:00,
2013-07-17 20:03:00,87.1,26.3,17.72,WNW,302,2.7,2.7,11,0.00,,---,0.00,VWS V13.01,2013-07-18 00:03:00,
2013-07-17 20:08:00,87.1,26.3,17.72,West,280,0.0,4.9,11,0.00,,---,0.00,VWS V13.01,2013-07-18 00:08:00,
2013-07-17 20:13:00,86.7,26.0,17.72,WSW,252,2.7,2.7,11,0.00,,---,0.00,VWS V13.01,2013-07-18 00:13:00,
2013-07-17 20:18:00,85.8,25.3,17.72,NNW,341,2.7,2.7,11,0.00,,---,0.00,VWS V13.01,2013-07-18 00:18:00,
2013-07-17 20:23:00,84.9,28.6,17.72,West,259,0.0,0.0,13,0.00,,---,0.00,VWS V13.01,2013-07-18 00:23:00,
2013-07-17 20:28:00,84.4,28.2,17.72,WNW,283,0.0,0.0,13,0.00,,---,0.00,VWS V13.01,2013-07-18 00:28:00,
2013-07-17 20:33:00,84.2,28.1,17.72,WNW,284,0.0,0.0,13,0.00,,---,0.00,VWS V13.01,2013-07-18 00:33:00,
2013-07-17 20:38:00,84.0,29.8,17.72,NNW,335,3.6,3.6,14,0.00,,---,0.00,VWS V13.01,2013-07-18 00:38:00,
2013-07-17 20:43:00,83.8,32.9,17.72,South,182,0.0,0.0,16,0.00,,---,0.00,VWS V13.01,2013-07-18 00:43:00,
2013-07-17 20:48:00,83.7,32.8,17.72,SW,234,0.0,0.0,16,0.00,,---,0.00,VWS V13.01,2013-07-18 00:48:00,
2013-07-17 20:53:00,83.7,32.8,17.72,SW,233,0.0,0.0,16,0.00,,---,0.00,VWS V13.01,2013-07-18 00:53:00,
2013-07-17 20:58:00,83.7,37.1,17.72,NNW,328,0.0,0.0,19,0.00,,---,0.00,VWS V13.01,2013-07-18 00:58:00,
2013-07-17 21:03:00,83.5,36.9,17.72,NNW,336,0.0,0.0,19,0.00,,---,0.00,VWS V13.01,2013-07-18 01:03:00,
2013-07-17 21:08:00,83.5,36.9,17.72,NW,315,0.0,0.0,19,0.00,,---,0.00,VWS V13.01,2013-07-18 01:08:00,
2013-07-17 21:13:00,83.5,36.9,17.72,NW,319,0.0,0.0,19,0.00,,---,0.00,VWS V13.01,2013-07-18 01:13:00,
2013-07-17 21:18:00,83.5,36.9,17.72,SSW,208,0.0,0.0,19,0.00,,---,0.00,VWS V13.01,2013-07-18 01:18:00,
2013-07-17 21:23:00,83.5,36.9,17.72,SW,214,0.0,0.0,19,0.00,,---,0.00,VWS V13.01,2013-07-18 01:23:00,
2013-07-17 21:28:00,83.7,37.1,17.72,SSW,212,0.0,0.0,19,0.00,,---,0.00,VWS V13.01,2013-07-18 01:28:00,
2013-07-17 21:33:00,83.7,38.4,17.72,NW,316,0.0,0.0,20,0.00,,---,0.00,VWS V13.01,2013-07-18 01:33:00,
2013-07-17 21:38:00,83.7,37.1,17.72,North,357,0.0,0.0,19,0.00,,---,0.00,VWS V13.01,2013-07-18 01:38:00,
2013-07-17 21:43:00,83.8,38.5,17.72,South,183,0.0,2.2,20,0.00,,---,0.00,VWS V13.01,2013-07-18 01:43:00,
2013-07-17 21:48:00,83.8,38.5,17.72,West,272,0.0,0.0,20,0.00,,---,0.00,VWS V13.01,2013-07-18 01:48:00,
2013-07-17 21:53:00,83.8,38.5,17.72,West,260,0.0,0.0,20,0.00,,---,0.00,VWS V13.01,2013-07-18 01:53:00,
2013-07-17 21:58:00,83.8,38.5,17.72,WSW,242,0.0,0.0,20,0.00,,---,0.00,VWS V13.01,2013-07-18 01:58:00,
2013-07-17 22:03:00,83.8,38.5,17.72,NNW,343,0.0,0.0,20,0.00,,---,0.00,VWS V13.01,2013-07-18 02:03:00,
2013-07-17 22:08:00,83.8,38.5,17.72,WSW,240,0.0,0.0,20,0.00,,---,0.00,VWS V13.01,2013-07-18 02:08:00,
2013-07-17 22:13:00,83.7,38.4,17.72,West,281,0.0,0.0,20,0.00,,---,0.00,VWS V13.01,2013-07-18 02:13:00,
2013-07-17 22:18:00,83.7,38.4,17.72,WSW,258,0.0,0.0,20,0.00,,---,0.00,VWS V13.01,2013-07-18 02:18:00,
2013-07-17 22:23:00,83.5,38.2,17.72,NNE,19,0.0,0.0,20,0.00,,---,0.00,VWS V13.01,2013-07-18 02:23:00,
2013-07-17 22:28:00,83.5,39.5,17.72,WNW,282,0.0,0.0,21,0.00,,---,0.00,VWS V13.01,2013-07-18 02:28:00,
2013-07-17 22:33:00,83.3,39.3,17.72,West,263,0.0,0.0,21,0.00,,---,0.00,VWS V13.01,2013-07-18 02:33:00,
2013-07-17 22:38:00,83.3,39.3,17.72,SW,231,0.0,0.0,21,0.00,,---,0.00,VWS V13.01,2013-07-18 02:38:00,
2013-07-17 22:43:00,83.1,39.2,17.72,NNW,338,0.0,0.0,21,0.00,,---,0.00,VWS V13.01,2013-07-18 02:43:00,
2013-07-17 22:48:00,83.1,39.2,17.72,WNW,298,0.0,0.0,21,0.00,,---,0.00,VWS V13.01,2013-07-18 02:48:00,
2013-07-17 22:53:00,83.1,39.2,17.72,WNW,290,2.2,3.6,21,0.00,,---,0.00,VWS V13.01,2013-07-18 02:53:00,
2013-07-17 22:58:00,82.9,39.0,17.72,SW,228,0.0,0.0,21,0.00,,---,0.00,VWS V13.01,2013-07-18 02:58:00,
2013-07-17 23:03:00,82.9,40.2,17.72,North,4,0.0,0.0,22,0.00,,---,0.00,VWS V13.01,2013-07-18 03:03:00,
2013-07-17 23:08:00,82.9,40.2,17.72,North,357,2.2,3.1,22,0.00,,---,0.00,VWS V13.01,2013-07-18 03:08:00,
2013-07-17 23:13:00,82.9,40.2,17.72,West,274,3.6,3.6,22,0.00,,---,0.00,VWS V13.01,2013-07-18 03:13:00,
2013-07-17 23:18:00,82.9,40.2,17.72,WNW,302,3.6,3.6,22,0.00,,---,0.00,VWS V13.01,2013-07-18 03:18:00,
2013-07-17 23:23:00,82.9,40.2,17.72,West,278,2.2,2.2,22,0.00,,---,0.00,VWS V13.01,2013-07-18 03:23:00,
2013-07-17 23:28:00,82.8,41.2,17.72,NNE,26,0.0,0.0,23,0.00,,---,0.00,VWS V13.01,2013-07-18 03:28:00,
2013-07-17 23:33:00,82.8,41.2,17.72,West,281,3.1,3.1,23,0.00,,---,0.00,VWS V13.01,2013-07-18 03:33:00,
2013-07-17 23:38:00,82.6,41.1,17.72,WNW,285,0.0,3.1,23,0.00,,---,0.00,VWS V13.01,2013-07-18 03:38:00,
2013-07-17 23:43:00,82.4,40.9,17.72,North,357,2.7,2.7,23,0.00,,---,0.00,VWS V13.01,2013-07-18 03:43:00,
2013-07-17 23:48:00,82.4,40.9,17.72,NNW,335,0.0,0.0,23,0.00,,---,0.00,VWS V13.01,2013-07-18 03:48:00,
2013-07-17 23:53:00,82.2,41.9,17.72,West,266,3.6,3.6,24,0.00,,---,0.00,VWS V13.01,2013-07-18 03:53:00,
2013-07-17 23:58:00,82.0,41.7,17.72,West,277,2.7,2.7,24,0.00,,---,0.00,VWS V13.01,2013-07-18 03:58:00,